"Pseudo-MPEC" for P11DBXV

Created 2023 Mar 20 10:22:13 UT using Find_Orb

Click here for an explanation of pseudo-MPECs

 
 Astrometry: 
     P11DBXV* C2023 03 18A)RCu9F:GZ2-6RcN\[,]S.8errH@bCJ:fy.f9/F%p7X3en6FMSceF51
     P11DBXV  C2023 03 18[7@7X)Z\w[+ftngyd$1xi4Astrometry5aBCredacted;aY=[pOdF51
     P11DBXV  C2023 03 18+1_lGL@pmtclickZq+X:1lOl-q5g2n_ne42JN/FP5gF(aSlhere9F51
     P11DBXV 1C2023 03 18.91628 12 59 18.71 +34 31 24.7    ~3J0M 20.8 VXNEOCP033
     P11DBXV 1C2023 03 18.91699 12 59 19.05 +34 31 05.6    ~3J0M 20.7 VXNEOCP033
     P11DBXV 1C2023 03 18.91770 12 59 19.35 +34 30 47.4    ~3J0M 20.7 VXNEOCP033
     P11DBXV KC2023 03 19.23984013 02 06.680+32 18 41.58   ~3J67 21.24GVNEOCPI52
     P11DBXV KC2023 03 19.24122413 02 07.120+32 18 09.58   ~3J67 20.44GVNEOCPI52
     P11DBXV KC2023 03 19.24190913 02 07.357+32 17 54.35   ~3J67 20.60GVNEOCPI52
     P11DBXV KC2023 03 19mX_BJGn_4Z.M(M;wC,bsv)s$jTX7GKo,H?SpXBP@oYm1Nj'qQDEM734
     P11DBXV KC2023 03 19Mr+rc/MiXZkQg;ccE*3$wx,hZ$s$#F+O+#VIf)8D=for]u_x_HCi734
     P11DBXV KC2023 03 195@4b.n@[rC'Wsg[O6G2NFPeu5=47:#MpD;Y,/yh[CI8p6MyLO1Tu734
     P11DBXV 1C2023 03 20.03207 13 06 32.54 +27 59 12.0    ~3K77 20.6 VXNEOCP033
     P11DBXV 1C2023 03 20.03311 13 06 32.72 +27 58 54.6    ~3K77 20.7 VXNEOCP033
     P11DBXV 1C2023 03 20.03414 13 06 32.93 +27 58 37.5    ~3K77 20.9 VXNEOCP033
     P11DBXV KC2023 03 20;spP6+B+bo!`dZGsZi.Wl']NcW7rRSk]\aYg$Nhexplanationl#H21
     P11DBXV KC2023 03 20e?].Mn!(u80!!glssy?O7!kpBoydgkg-1$;8rp@m.*Hdqo]DnVt+H21
     P11DBXV KC2023 03 201?VShUUF+b10XJ(NDP7OR!G^Eos!8WZZfx5g]RxG0*^!Zu*2v^Z5H21

Station data:
(033) Karl Schwarzschild Observatory, Tautenburg  (N50.980137 E11.711240)
   Germany.  Observers S. Melnikov, C. Hoegner, B. Stecklum. Measurer B.
   Stecklum. 1.34-m f/3 Schmidt + CCD.
(734) Farpoint Observatory, Eskridge  (N38.890104 W96.001400)  US/Kansas.
   Observer G. Hug. 0.69-m reflector + CCD.
(F51) Pan-STARRS 1, Haleakala  (N20.707234 W156.255910)  US/Hawaii.
   Observers J. Bulger, T. Lowe, A. Schultz, M. Willman. Measurers K.
   Chambers, S. Chastel, T. de Boer, L. Denneau, J. Fairlamb, H. Flewelling,
   M. Huber, C.-C. Lin, E. Magnier, Y. Ramanjooloo, R. Wainscoat, R. Weryk.
   1.8-m Ritchey-Chrétien + CCD.
(H21) Astronomical Research Observatory, Westfield  (N39.483054 W87.968270)
   US/Illinois.  Observer R. Holmes. Measurers S. Foglia, L. Buzzi, T.
   Linder, R. Holmes. 0.76-m f/3.0 astrograph + CCD0.81-m f/4.0 astrograph +
   CCD0.61-m f/4.5 astrograph + CCD0.40-m f/5.32 astrograph + CCD.
(I52) Steward Observatory, Mt. Lemmon Station  (N32.442544 W110.788920)
   US/Arizona.  Observers T. A. Pruyne, B. M. Africano, E. J. Christensen, G.
   A. Farneth, D. C. Fuls, A. R. Gibbs, A. D. Grauer, H. Gröller, J. A.
   Johnson, R. A. Kowalski, S. M. Larson, G. J. Leonard, D. Rankin, R. L.
   Seaman, F. C. Shelly, K. W. Wierzchoś. 1.0-m reflector + CCD.

Orbital elements:  P11DBXV
   Perihelion 2023 Feb 4.36321 +/- 0.00945 TT =  8:43:01 (JD 2459979.86321)
Epoch 2023 Mar 20.0 TT = JDT 2460023.5   Earth MOID: 0.0067   Ma: 0.0199
M  23.73879080 +/- 0.029            (J2000 ecliptic)             AutoNEOCP
n   0.54400863 +/- 0.000552         Peri.  315.45068 +/- 0.0028
a   1.48615983 +/- 0.00101          Node   168.14555 +/- 0.0016
e   0.4009144 +/- 0.000464          Incl.    3.79541 +/- 0.0038
P   1.81/661.74d           H 27.90  G  0.15   U  7.7
q 0.89033693 +/- 8.8e-5    Q 2.08198273 +/- 0.0021
From 18 observations 2023 Mar. 18-20 (43.9 hr); mean residual 0".42
Residuals in arcseconds: 
230318 F51  .12-  .26+    230319 I52  .11-  1.1+    230320 033  .01+  .08+    
230318 F51  .12-  .26+    230319 I52  .00   .10-    230320 033  .08-  .15-    
230318 F51  .17+  .77-    230319 I52  .31+  .07-    230320 033  .25+  .24-    
230318 033  .01-  .53+    230319 734  .23-  1.2-    230320 H21  .09-  .03-    
230318 033  .41+  .10+    230319 734  .04+  .92-    230320 H21  .12-  .06+    
230318 033  .35+  .56+    230319 734  .29+  .82+    230320 H21  .29-  .19+    

Ephemerides (geocentric):
Date (UTC) HH   RA             Dec           delta  r     elong  mag " sig PA
---- --------  ------------   ------------  ------ ------ -----  --- --------
2023 03 20 10  13 08 15.505   +26 23 33.06  .02552 1.0177 148.8 21.3 .061 149
2023 03 20 11  13 08 25.457   +26 13 45.98  .02572 1.0179 148.9 21.4 .053 146
2023 03 20 12  13 08 35.218   +26 04 07.93  .02593 1.0181 149.0 21.4 .046 143
2023 03 20 13  13 08 44.795   +25 54 38.71  .02613 1.0183 149.1 21.4 .039 138
2023 03 20 14  13 08 54.191   +25 45 18.13  .02633 1.0185 149.3 21.4 .033 131
2023 03 20 15  13 09 03.413   +25 36 05.99  .02654 1.0187 149.4 21.4 .026 120
2023 03 20 16  13 09 12.464   +25 27 02.11  .02674 1.0189 149.5 21.4 .022 104
2023 03 20 17  13 09 21.350   +25 18 06.32  .02694 1.0191 149.6 21.4 .020  81
2023 03 20 18  13 09 30.073   +25 09 18.45  .02715 1.0194 149.7 21.4 .021  57
2023 03 20 19  13 09 38.639   +25 00 38.31  .02735 1.0196 149.8 21.5 .026  39
2023 03 20 20  13 09 47.051   +24 52 05.75  .02756 1.0198 149.9 21.5 .032  27
2023 03 20 21  13 09 55.314   +24 43 40.62  .02776 1.0200 150.0 21.5 .039  19
2023 03 20 22  13 10 03.430   +24 35 22.74  .02797 1.0202 150.1 21.5 .047  13
2023 03 20 23  13 10 11.405   +24 27 11.98  .02817 1.0204 150.2 21.5 .056  10
2023 03 21 00  13 10 19.240   +24 19 08.18  .02838 1.0206 150.3 21.5 .064   7
2023 03 21 01  13 10 26.940   +24 11 11.20  .02858 1.0209 150.4 21.5 .073   5
2023 03 21 02  13 10 34.507   +24 03 20.90  .02879 1.0211 150.5 21.6 .082   3
2023 03 21 03  13 10 41.946   +23 55 37.15  .02899 1.0213 150.5 21.6 .091   2
2023 03 21 04  13 10 49.258   +23 47 59.81  .02920 1.0215 150.6 21.6 .100   0
2023 03 21 05  13 10 56.447   +23 40 28.76  .02941 1.0217 150.7 21.6 .109 179
2023 03 21 06  13 11 03.516   +23 33 03.86  .02961 1.0219 150.8 21.6 .119 179
2023 03 21 07  13 11 10.468   +23 25 44.99  .02982 1.0221 150.9 21.6 .128 178
2023 03 21 08  13 11 17.305   +23 18 32.04  .03003 1.0224 151.0 21.6 .138 177
2023 03 21 09  13 11 24.030   +23 11 24.88  .03023 1.0226 151.1 21.6 .147 177
2023 03 21 10  13 11 30.645   +23 04 23.41  .03044 1.0228 151.2 21.7 .156 177
2023 03 21 11  13 11 37.154   +22 57 27.52  .03065 1.0230 151.2 21.7 .166 176
2023 03 21 12  13 11 43.557   +22 50 37.09  .03085 1.0232 151.3 21.7 .175 176
2023 03 21 13  13 11 49.858   +22 43 52.02  .03106 1.0234 151.4 21.7 .185 176
2023 03 21 14  13 11 56.059   +22 37 12.20  .03127 1.0237 151.5 21.7 .195 175
2023 03 21 15  13 12 02.162   +22 30 37.54  .03148 1.0239 151.6 21.7 .204 175
2023 03 21 16  13 12 08.170   +22 24 07.94  .03169 1.0241 151.6 21.7 .214 175
2023 03 21 17  13 12 14.083   +22 17 43.31  .03189 1.0243 151.7 21.7 .223 175
2023 03 21 18  13 12 19.905   +22 11 23.54  .03210 1.0245 151.8 21.8 .233 175
2023 03 21 19  13 12 25.636   +22 05 08.56  .03231 1.0247 151.9 21.8 .243 174
2023 03 21 20  13 12 31.280   +21 58 58.26  .03252 1.0249 151.9 21.8 .252 174
2023 03 21 21  13 12 36.838   +21 52 52.57  .03273 1.0252 152.0 21.8 .262 174
2023 03 21 22  13 12 42.311   +21 46 51.39  .03294 1.0254 152.1 21.8 .272 174
2023 03 21 23  13 12 47.702   +21 40 54.66  .03314 1.0256 152.2 21.8 .281 174
2023 03 22 00  13 12 53.012   +21 35 02.28  .03335 1.0258 152.2 21.8 .291 174
2023 03 22 01  13 12 58.243   +21 29 14.17  .03356 1.0260 152.3 21.8 .300 174
2023 03 22 02  13 13 03.395   +21 23 30.27  .03377 1.0262 152.4 21.9 .310 174
2023 03 22 03  13 13 08.472   +21 17 50.49  .03398 1.0265 152.4 21.9 .320 174
2023 03 22 04  13 13 13.474   +21 12 14.76  .03419 1.0267 152.5 21.9 .329 173
2023 03 22 05  13 13 18.403   +21 06 43.01  .03440 1.0269 152.6 21.9 .339 173
2023 03 22 06  13 13 23.261   +21 01 15.17  .03461 1.0271 152.6 21.9 .348 173
2023 03 22 07  13 13 28.048   +20 55 51.17  .03482 1.0273 152.7 21.9 .358 173
2023 03 22 08  13 13 32.766   +20 50 30.95  .03503 1.0276 152.8 21.9 .367 173
2023 03 22 09  13 13 37.416   +20 45 14.43  .03524 1.0278 152.8 21.9 .377 173